This is the latest recevied weather packets stored in our database for station/object SP5EB-3. If no packets are shown the sender has not sent any weather packets the latest 10 day(s).
| Time | Temp. | Humidity | Pressure | Rain* | Wind** | Luminosity | Snow |
|---|---|---|---|---|---|---|---|
| 1777451610 | 7.22° C | 99% | 1025.1 hPa | - | - | - | - |
| 1777451304 | 7.22° C | 99% | 1025.1 hPa | - | - | - | - |
| 1777450997 | 7.22° C | 99% | 1025.1 hPa | - | - | - | - |
| 1777450690 | 7.22° C | 99% | 1025.1 hPa | - | - | - | - |
| 1777450383 | 7.22° C | 99% | 1025.1 hPa | - | - | - | - |
| 1777450077 | 7.22° C | 99% | 1025 hPa | - | - | - | - |
| 1777449770 | 6.67° C | 99% | 1024.9 hPa | - | - | - | - |
| 1777449464 | 6.67° C | 99% | 1025 hPa | - | - | - | - |
| 1777448544 | 6.67° C | 99% | 1024.7 hPa | - | - | - | - |
| 1777448237 | 6.11° C | 99% | 1024.6 hPa | - | - | - | - |
| 1777447931 | 6.11° C | 99% | 1024.7 hPa | - | - | - | - |
| 1777447625 | 5.56° C | 99% | 1024.6 hPa | - | - | - | - |
| 1777447318 | 5.56° C | 99% | 1024.7 hPa | - | - | - | - |
| 1777447011 | 5.56° C | 99% | 1024.6 hPa | - | - | - | - |
| 1777446705 | 5.56° C | 99% | 1024.5 hPa | - | - | - | - |
| 1777446398 | 5.56° C | 99% | 1024.6 hPa | - | - | - | - |
| 1777446092 | 5° C | 99% | 1024.6 hPa | - | - | - | - |
| 1777445786 | 5° C | 99% | 1024.6 hPa | - | - | - | - |
| 1777445480 | 5° C | 99% | 1024.6 hPa | - | - | - | - |
| 1777445173 | 4.44° C | 99% | 1024.6 hPa | - | - | - | - |
| 1777444866 | 4.44° C | 99% | 1024.6 hPa | - | - | - | - |
| 1777444560 | 4.44° C | 99% | 1024.6 hPa | - | - | - | - |
| 1777444254 | 3.89° C | 99% | 1024.5 hPa | - | - | - | - |
| 1777443642 | 3.89° C | 99% | 1024.4 hPa | - | - | - | - |
| 1777443335 | 3.33° C | 99% | 1024.5 hPa | - | - | - | - |
* Rain since midnight (hover to see other rain measurements)
** Current wind speed in m/s (hover to see current wind gust speed)